Погода в Кулагине

Россия / Нижегородская область     56°45′04″N   44°15′44″E
темп.,
°C
ветер,
м/с
пор.,
м/с
влажн.,
%
обл.,
%
осадки,
мм/ч
давл.,
гПа
погр.,
м
7 марта, вс
вс700:00−17з22970 0.0 101220
03:00−17юз22994 0.0 101020
06:00−17ю2310096 0.0 100869
09:00−12ю499798 0.1 1005304
12:00−8ю61294100 0.4 1002731
15:00−6ю61194100 2.0 9971014
18:00−6ю51095100 1.4 993782
21:00−5ююз4995100 2.4 991622
8 марта, пн
пн800:00−6зсз3996100 1.1 990477
03:00−8зсз4991100 1.2 991265
06:00−13зюз388752 0.0 993154
09:00−10з369576 0.0 995282
12:00−6з3589100 0.0 996666
15:00−6з3586100 0.1 997752
18:00−10зсз239386 0.0 100042
21:00−11сз379558 0.1 1004231
9 марта, вт
вт900:00−16сз339731 0.0 100668
03:00−19ссз239817 0.0 100833
06:00−20ссз239869 0.0 101041
09:00−17с249556 0.0 1012215
12:00−13ссз249298 0.0 1013444
15:00−12ссз349099 0.1 1013676
18:00−15ссз3794100 0.1 1015242
21:00−19ссз3797100 0.1 1017172
10 марта, ср
ср1000:00−20с379792 0.1 1018252
03:00−24ссз379789 0.1 1020172
06:00−28с38973 0.0 1022179
09:00−25с37959 0.0 1023274
12:00−19ссз36900 0.0 1024517
15:00−17ссз468646 0.0 1024723
18:00−21сз239498 0.0 102540
21:00−23сз239854 0.0 102643
11 марта, чт
чт1100:00−23сз34990 0.0 102782
03:00−24зсз369929 0.0 102791
06:00−23зсз38980 0.0 1027159
09:00−18сз499442 0.0 1028280
12:00−12сз489364 0.0 1028360
15:00−9сз479154 0.0 1028433
18:00−12зсз369451 0.0 1028112
21:00−15зсз339625 0.0 103082